Regional Weather Roundup
Issued by NWS

Home | Current Version | Previous Version | Text Only | Print | Product List | Glossary On
Versions: 1 2 3 4 5 6 7 8 9 10 11 12 13 14 15 16 17 18 19 20 21 22 23 24 25 26 27 28 29 30 31 32 33 34 35 36 37 38 39 40 41 42 43 44 45 46 47 48 49 50
000
ASUS43 KMPX 222110
RWRMN
WEATHER ROUNDUP FOR MINNESOTA
NATIONAL WEATHER SERVICE TWIN CITIES/CHANHASSEN MN
400 PM CDT WED MAR 22 2017


NOTE: "FAIR" INDICATES FEW OR NO CLOUDS BELOW 12,000 FEET WITH NO
SIGNIFICANT WEATHER AND/OR OBSTRUCTIONS TO VISIBILITY. N/A MEANS
CURRENT SKY AND/OR WEATHER CONDITIONS ARE NOT AVAILABLE.

MNZ060>063-068>070-222200-
   Twin Cities Metro

CITY           SKY/WX    TMP DP  RH WIND       PRES   REMARKS
TWIN CITIES    CLOUDY    38  11  32 SE14G23   30.42F
ST PAUL        CLOUDY    38  11  32 S14       30.44F
CRYSTAL        CLOUDY    37   9  31 SE9       30.40F
BLAINE         PTSUNNY   39  10  30 SE9G18    30.42F
LAKEVILLE      PTSUNNY   36  18  48 S13       30.41F
EDEN PRAIRIE   CLOUDY    39  14  36 SE12      30.40F
SOUTH ST PAUL  CLOUDY    38  11  32 SE8G17    30.42F
LAKE ELMO      FAIR      37  12  35 SE8       30.43F
$$
MNZ001>005-007-008-013>017-022>024-027-028-222200-
   Northwest Minnesota

CITY           SKY/WX    TMP DP  RH WIND       PRES   REMARKS
BEMIDJI        CLOUDY    33   8  35 SE15G22   30.29F WCI  23
HALLOCK        CLOUDY    30  18  59 S20       30.23F WCI  18
ROSEAU         CLOUDY    34  12  40 S13       30.26F WCI  25
WARROAD        CLOUDY    32  10  40 S12       30.28F WCI  23
THIEF RVR FALL   N/A    N/A N/A N/A MISG        N/A
CROOKSTON      CLOUDY    32  12  43 S22G28    30.26F WCI  19
FOSSTON        CLOUDY    32  10  40 SE15G21   30.26F WCI  22
DETROIT LAKES  MOSUNNY   32  14  47 SE17      30.27F WCI  21
MOORHEAD       DRIZZLE   30  12  47 SE22G29   30.25F WCI  17
PARK RAPIDS    CLOUDY    35   7  31 SE17      30.28F WCI  25
MAHNOMEN       CLOUDY    34  11  38 S16G25    30.25F WCI  24
$$
MNZ006-009>011-018-025>026-222200-
   North Central Minnesota

CITY           SKY/WX    TMP DP  RH WIND       PRES   REMARKS
BAUDETTE       CLOUDY    33   7  33 S15       30.28F WCI  23
FLAG ISLAND    CLOUDY    28  14  54 S15       30.28F WCI  17
INTL FALLS     PTSUNNY   34   6  31 S9        30.34F WCI  27
WASKISH        CLOUDY    36   9  32 S9G18     30.30F
BIG FORK       CLOUDY    34   7  32 S8        30.35F WCI  27
LONGVILLE      CLOUDY    34   7  32 S15       30.33F WCI  24
GRAND RAPIDS   CLOUDY    33   6  32 SE14      30.37F WCI  23
CRANE LAKE     CLOUDY    32   1  27 SE7       30.39F WCI  26
ORR            MOSUNNY   34   3  27 CALM      30.34F
COOK           CLOUDY    34   7  32 S6        30.37F WCI  29
WALKER         CLOUDY    33   6  31 SE12G21   30.31F WCI  24
$$
MNZ012-019>021-037-222200-
   Northeast Minnesota

CITY           SKY/WX    TMP DP  RH WIND       PRES   REMARKS
DULUTH         CLOUDY    31  13  47 SE9       30.39F WCI  23
ELY            SUNNY     34   3  27 SE8       30.37F WCI  27
HIBBING        CLOUDY    33   6  32 S12G18    30.37F WCI  24
EVELETH        CLOUDY    34  -1  22 S8        30.38F WCI  27
DULUTH HARBOR  CLOUDY    30  19  64 E8        30.46F WCI  23
TWO HARBORS    CLOUDY    34  18  51 E8        30.41F WCI  27
SILVER BAY     MOSUNNY   27  14  59 E3        30.43F
GRAND MARAIS     N/A     26  13  57 S5        30.51F WCI  20
G MARAIS ARPRT CLOUDY    21   7  53 SE7       30.42F WCI  13
$$
MNZ029>031-032-039>041-046>048-054>057-064-222200-
   West Central Minnesota

CITY           SKY/WX    TMP DP  RH WIND       PRES   REMARKS
FERGUS FALLS   CLOUDY    34  12  40 S25       30.32F WCI  21
WHEATON        LGT SNOW  30  25  80 SE24      30.27F WCI  16
MORRIS         MIX PCPN  34  19  55 S24G30    30.29F WCI  21
ALEXANDRIA     CLOUDY    33  14  45 SE22      30.31F WCI  21
ELBOW LAKE     CLOUDY    32  16  51 SE22G29   30.28F WCI  20
WADENA         PTSUNNY   32  10  40 SE17      30.30F WCI  21
GLENWOOD       CLOUDY    34  18  51 SE17G24   30.32F WCI  23
APPLETON       CLOUDY    36  21  55 S15G23    30.30F
BENSON         CLOUDY    37  18  44 S17G24    30.32F
ORTONVILLE     LGT RAIN  32  25  74 SE16G23   30.27F WCI  21
MADISON        CLOUDY    36  27  69 S21G26    30.29F
WILLMAR        FAIR      36  21  55 SE16G23   30.35F
$$
MNZ033>034-036-042>043-049>051-058-059-222200-
   Central Minnesota

CITY           SKY/WX    TMP DP  RH WIND       PRES   REMARKS
ST CLOUD       CLOUDY    35  10  35 SE16      30.38F WCI  25
SAUK CENTRE    FAIR      32  16  50 SE18G24   30.34F WCI  21
PAYNESVILLE      N/A     34  18  52 SE14      30.36F WCI  24
AITKIN         PTSUNNY   37   0  20 S10       30.36F
PINE RIVER     CLOUDY    36  12  38 S15G23    30.36F
BRAINERD       MOSUNNY   36   6  28 S15       30.35F
STAPLES        PTSUNNY   34   3  27 SE13      30.32F WCI  25
LONG PRAIRIE   CLOUDY    32  12  43 E16       30.34F WCI  21
LITTLE FALLS   PTSUNNY   36   7  30 S13       30.37F
LITCHFIELD     CLOUDY    36  19  51 SE8G18    30.37F
BUFFALO        CLOUDY    36  11  35 SE13      30.41F
MAPLE LAKE     CLOUDY    37  17  43 S13       30.40F
HUTCHINSON     CLOUDY    37  22  55 SE10G18   30.38F
$$
MNZ037-044-045-052-053-222200-
   East Central Minnesota

CITY           SKY/WX    TMP DP  RH WIND       PRES   REMARKS
PRINCETON      CLOUDY    37   7  28 SE13      30.39F
MORA           MOSUNNY   36   9  32 S8        30.42F
CAMBRIDGE      MOSUNNY   39  18  41 SE7       30.39F
RUSH CITY      MOSUNNY   37   8  30 SE9       30.42F
MOOSE LAKE     PTSUNNY   37   9  30 S9G17     30.38F
HINCKLEY       FAIR      37   9  30 SE10      30.41F
CLOQUET        PTSUNNY   34   7  32 E9        30.39F WCI  26
MCGREGOR       PTSUNNY   36   7  30 SE14      30.38F
$$
MNZ071>073-080-081-089-090-097-098-222200-
   Southwest Minnesota

CITY           SKY/WX    TMP DP  RH WIND       PRES   REMARKS
MONTEVIDEO     CLOUDY    36  23  60 S16G22    30.33F
GRANITE FALLS  CLOUDY    36  26  66 SE17G24   30.34F
CANBY          CLOUDY    33  28  79 SE16G22   30.29F WCI  23
MARSHALL       MIX PCPN  32  27  81 S16G24    30.31F WCI  21
REDWOOD FALLS  CLOUDY    36  22  56 SE22      30.35F
OLIVIA         CLOUDY    36  23  60 S16       30.34F
PIPESTONE      CLOUDY    34  21  60 SE16      30.24F WCI  23
WINDOM         FLURRIES  34  23  64 SE18      30.33F WCI  23
WORTHINGTON    CLOUDY    32  26  78 SE14      30.30F WCI  22
JACKSON        FLURRIES  34  23  64 SE14G20   30.34F WCI  24
TRACY          MIX PCPN  33  29  84 S16       30.32F WCI  22
SLAYTON        CLOUDY    30  28  90 SE21      30.29F WCI  17
$$
MNZ065>067-074>077-082>085-091>093-222200-
   South Central Minnesota

CITY           SKY/WX    TMP DP  RH WIND       PRES   REMARKS
NEW ULM        PTSUNNY   36  21  55 SE15G21   30.37F
ST JAMES       CLOUDY    36  25  64 SE16      30.38F
FAIRMONT       CLOUDY    37  23  56 SE20G25   30.36F
GLENCOE        CLOUDY    37  22  56 S10       30.39F
FARIBAULT      CLOUDY    37  16  41 SE14G20   30.42F
OWATONNA       CLOUDY    37  16  41 SE9       30.42S
WASECA         MOSUNNY   36  21  55 SE13G20   30.42F
ALBERT LEA     CLOUDY    37  19  48 S13G20    30.40F
$$
MNZ078>079-086>088-094>096-222200-
   Southeast Minnesota

CITY           SKY/WX    TMP DP  RH WIND       PRES   REMARKS
ROCHESTER      MOSUNNY   36  14  40 S10       30.43F
RED WING       CLOUDY    39   7  26 SE9       30.44F
STANTON        CLOUDY    38  13  36 SE9       30.41F
DODGE CENTER   CLOUDY    36  18  48 SE15      30.41F
WINONA         SUNNY     39  10  30 E7        30.47F
AUSTIN         PTSUNNY   37  16  41 SE13      30.40F
PRESTON        PTSUNNY   36   8  31 S8        30.44F
$$
ABBREVIATIONS USED IN REMARKS
   TC - TEMPERATURES IN CELSIUS
  WCI - WIND CHILL INDEX
   HX - HEAT INDEX
  VSB - VISIBILITY
$$




USA.gov is the U.S. government's official web portal to all federal, state and local government web resources and services.